Year,Month,Day,Hour,Minute,Value (Times are PST for temperature in C)
2017,08,17,00,00,18.80
2017,08,17,00,01,18.80
2017,08,17,00,02,18.80
2017,08,17,00,03,18.80
2017,08,17,00,04,18.80
2017,08,17,00,05,18.80
2017,08,17,00,06,18.80
2017,08,17,00,07,18.80
2017,08,17,00,08,18.70
2017,08,17,00,09,18.70
2017,08,17,00,10,18.70
2017,08,17,00,11,18.70
2017,08,17,00,12,18.70
2017,08,17,00,13,18.70
2017,08,17,00,14,18.70
2017,08,17,00,15,18.70
2017,08,17,00,16,18.70
2017,08,17,00,17,18.70
2017,08,17,00,18,18.70
2017,08,17,00,19,18.70
2017,08,17,00,20,18.70
2017,08,17,00,21,18.60
2017,08,17,00,22,18.60
2017,08,17,00,23,18.60
2017,08,17,00,24,18.60
2017,08,17,00,25,18.60
2017,08,17,00,26,18.60
2017,08,17,00,27,18.60
2017,08,17,00,28,18.60
2017,08,17,00,29,18.50
2017,08,17,00,30,18.50
2017,08,17,00,31,18.50
2017,08,17,00,32,18.50
2017,08,17,00,33,18.40
2017,08,17,00,34,18.40
2017,08,17,00,35,18.40
2017,08,17,00,36,18.40
2017,08,17,00,37,18.40
2017,08,17,00,38,18.40
2017,08,17,00,39,18.30
2017,08,17,00,40,18.30
2017,08,17,00,41,18.30
2017,08,17,00,42,18.30
2017,08,17,00,43,18.30
2017,08,17,00,44,18.30
2017,08,17,00,45,18.30
2017,08,17,00,46,18.30
2017,08,17,00,47,18.20
2017,08,17,00,48,18.20
2017,08,17,00,49,18.20
2017,08,17,00,50,18.20
2017,08,17,00,51,18.20
2017,08,17,00,52,18.20
2017,08,17,00,53,18.20
2017,08,17,00,54,18.20
2017,08,17,00,55,18.10
2017,08,17,00,56,18.10
2017,08,17,00,57,18.10
2017,08,17,00,58,18.10
2017,08,17,00,59,18.10
2017,08,17,01,00,18.10
2017,08,17,01,01,18.10
2017,08,17,01,02,18.10
2017,08,17,01,03,18.10
2017,08,17,01,04,18.10
2017,08,17,01,05,18.10
2017,08,17,01,06,18.10
2017,08,17,01,07,18.10
2017,08,17,01,08,18.10
2017,08,17,01,09,18.10
2017,08,17,01,10,18.10
2017,08,17,01,11,18.10
2017,08,17,01,12,18.10
2017,08,17,01,13,18.00
2017,08,17,01,14,18.00
2017,08,17,01,15,18.00
2017,08,17,01,16,17.90
2017,08,17,01,17,17.90
2017,08,17,01,18,17.90
2017,08,17,01,19,17.90
2017,08,17,01,20,17.90
2017,08,17,01,21,17.90
2017,08,17,01,22,17.90
2017,08,17,01,23,17.90
2017,08,17,01,24,17.90
2017,08,17,01,25,17.80
2017,08,17,01,26,17.80
2017,08,17,01,27,17.80
2017,08,17,01,28,17.80
2017,08,17,01,29,17.80
2017,08,17,01,30,17.80
2017,08,17,01,31,17.80
2017,08,17,01,32,17.80
2017,08,17,01,33,17.80
2017,08,17,01,34,17.70
2017,08,17,01,35,17.70
2017,08,17,01,36,17.70
2017,08,17,01,37,17.70
2017,08,17,01,38,17.70
2017,08,17,01,39,17.70
2017,08,17,01,40,17.70
2017,08,17,01,41,17.70
2017,08,17,01,42,17.70
2017,08,17,01,43,17.70
2017,08,17,01,44,17.70
2017,08,17,01,45,17.70
2017,08,17,01,46,17.70
2017,08,17,01,47,17.70
2017,08,17,01,48,17.70
2017,08,17,01,49,17.70
2017,08,17,01,50,17.60
2017,08,17,01,51,17.60
2017,08,17,01,52,17.60
2017,08,17,01,53,17.60
2017,08,17,01,54,17.60
2017,08,17,01,55,17.60
2017,08,17,01,56,17.60
2017,08,17,01,57,17.50
2017,08,17,01,58,17.50
2017,08,17,01,59,17.50
2017,08,17,02,00,17.50
2017,08,17,02,01,17.50
2017,08,17,02,02,17.50
2017,08,17,02,03,17.50
2017,08,17,02,04,17.50
2017,08,17,02,05,17.50
2017,08,17,02,06,17.50
2017,08,17,02,07,17.50
2017,08,17,02,08,17.40
2017,08,17,02,09,17.50
2017,08,17,02,10,17.40
2017,08,17,02,11,17.40
2017,08,17,02,12,17.50
2017,08,17,02,13,17.50
2017,08,17,02,14,17.50
2017,08,17,02,15,17.50
2017,08,17,02,16,17.50
2017,08,17,02,17,17.50
2017,08,17,02,18,17.50
2017,08,17,02,19,17.50
2017,08,17,02,20,17.50
2017,08,17,02,21,17.50
2017,08,17,02,22,17.50
2017,08,17,02,23,17.50
2017,08,17,02,24,17.50
2017,08,17,02,25,17.50
2017,08,17,02,26,17.50
2017,08,17,02,27,17.50
2017,08,17,02,28,17.50
2017,08,17,02,29,17.50
2017,08,17,02,30,17.50
2017,08,17,02,31,17.50
2017,08,17,02,32,17.50
2017,08,17,02,33,17.50
2017,08,17,02,34,17.50
2017,08,17,02,35,17.50
2017,08,17,02,36,17.50
2017,08,17,02,37,17.50
2017,08,17,02,38,17.40
2017,08,17,02,39,17.40
2017,08,17,02,40,17.40
2017,08,17,02,41,17.40
2017,08,17,02,42,17.40
2017,08,17,02,43,17.40
2017,08,17,02,44,17.40
2017,08,17,02,45,17.40
2017,08,17,02,46,17.40
2017,08,17,02,47,17.30
2017,08,17,02,48,17.30
2017,08,17,02,49,17.30
2017,08,17,02,50,17.30
2017,08,17,02,51,17.30
2017,08,17,02,52,17.30
2017,08,17,02,53,17.30
2017,08,17,02,54,17.30
2017,08,17,02,55,17.20
2017,08,17,02,56,17.20
2017,08,17,02,57,17.20
2017,08,17,02,58,17.20
2017,08,17,02,59,17.20
2017,08,17,03,00,17.20
2017,08,17,03,01,17.20
2017,08,17,03,02,17.20
2017,08,17,03,03,17.20
2017,08,17,03,04,17.20
2017,08,17,03,05,17.10
2017,08,17,03,06,17.20
2017,08,17,03,07,17.10
2017,08,17,03,08,17.10
2017,08,17,03,09,17.10
2017,08,17,03,10,17.10
2017,08,17,03,11,17.10
2017,08,17,03,12,17.10
2017,08,17,03,13,17.10
2017,08,17,03,14,17.10
2017,08,17,03,15,17.10
2017,08,17,03,16,17.10
2017,08,17,03,17,17.10
2017,08,17,03,18,17.10
2017,08,17,03,19,17.10
2017,08,17,03,20,17.10
2017,08,17,03,21,17.10
2017,08,17,03,22,17.10
2017,08,17,03,23,17.10
2017,08,17,03,24,17.10
2017,08,17,03,25,17.10
2017,08,17,03,26,17.10
2017,08,17,03,27,17.10
2017,08,17,03,28,17.10
2017,08,17,03,29,17.00
2017,08,17,03,30,17.00
2017,08,17,03,31,17.00
2017,08,17,03,32,17.00
2017,08,17,03,33,17.00
2017,08,17,03,34,17.00
2017,08,17,03,35,17.00
2017,08,17,03,36,17.00
2017,08,17,03,37,16.90
2017,08,17,03,38,16.90
2017,08,17,03,39,16.90
2017,08,17,03,40,16.90
2017,08,17,03,41,16.90
2017,08,17,03,42,16.90
2017,08,17,03,43,16.90
2017,08,17,03,44,16.90
2017,08,17,03,45,16.90
2017,08,17,03,46,16.90
2017,08,17,03,47,16.90
2017,08,17,03,48,16.90
2017,08,17,03,49,16.90
2017,08,17,03,50,16.90
2017,08,17,03,51,16.90
2017,08,17,03,52,16.90
2017,08,17,03,53,16.90
2017,08,17,03,54,16.80
2017,08,17,03,55,16.80
2017,08,17,03,56,16.80
2017,08,17,03,57,16.80
2017,08,17,03,58,16.80
2017,08,17,03,59,16.80
2017,08,17,04,00,16.80
2017,08,17,04,01,16.80
2017,08,17,04,02,16.70
2017,08,17,04,03,16.70
2017,08,17,04,04,16.70
2017,08,17,04,05,16.70
2017,08,17,04,06,16.70
2017,08,17,04,07,16.70
2017,08,17,04,08,16.70
2017,08,17,04,09,16.70
2017,08,17,04,10,16.60
2017,08,17,04,11,16.60
2017,08,17,04,12,16.60
2017,08,17,04,13,16.60
2017,08,17,04,14,16.60
2017,08,17,04,15,16.60
2017,08,17,04,16,16.60
2017,08,17,04,17,16.60
2017,08,17,04,18,16.60
2017,08,17,04,19,16.60
2017,08,17,04,20,16.60
2017,08,17,04,21,16.50
2017,08,17,04,22,16.50
2017,08,17,04,23,16.50
2017,08,17,04,24,16.50
2017,08,17,04,25,16.50
2017,08,17,04,26,16.50
2017,08,17,04,27,16.50
2017,08,17,04,28,16.50
2017,08,17,04,29,16.50
2017,08,17,04,30,16.50
2017,08,17,04,31,16.50
2017,08,17,04,32,16.50
2017,08,17,04,33,16.50
2017,08,17,04,34,16.50
2017,08,17,04,35,16.40
2017,08,17,04,36,16.40
2017,08,17,04,37,16.40
2017,08,17,04,38,16.40
2017,08,17,04,39,16.40
2017,08,17,04,40,16.40
2017,08,17,04,41,16.40
2017,08,17,04,42,16.40
2017,08,17,04,43,16.40
2017,08,17,04,44,16.40
2017,08,17,04,45,16.40
2017,08,17,04,46,16.40
2017,08,17,04,47,16.40
2017,08,17,04,48,16.40
2017,08,17,04,49,16.40
2017,08,17,04,50,16.40
2017,08,17,04,51,16.40
2017,08,17,04,52,16.40
2017,08,17,04,53,16.30
2017,08,17,04,54,16.30
2017,08,17,04,55,16.30
2017,08,17,04,56,16.30
2017,08,17,04,57,16.30
2017,08,17,04,58,16.30
2017,08,17,04,59,16.30
2017,08,17,05,00,16.30
2017,08,17,05,01,16.30
2017,08,17,05,02,16.30
2017,08,17,05,03,16.30
2017,08,17,05,04,16.30
2017,08,17,05,05,16.30
2017,08,17,05,06,16.30
2017,08,17,05,07,16.30
2017,08,17,05,08,16.30
2017,08,17,05,09,16.30
2017,08,17,05,10,16.30
2017,08,17,05,11,16.30
2017,08,17,05,12,16.30
2017,08,17,05,13,16.30
2017,08,17,05,14,16.30
2017,08,17,05,15,16.30
2017,08,17,05,16,16.30
2017,08,17,05,17,16.30
2017,08,17,05,18,16.30
2017,08,17,05,19,16.20
2017,08,17,05,20,16.20
2017,08,17,05,21,16.20
2017,08,17,05,22,16.20
2017,08,17,05,23,16.20
2017,08,17,05,24,16.20
2017,08,17,05,25,16.20
2017,08,17,05,26,16.20
2017,08,17,05,27,16.20
2017,08,17,05,28,16.10
2017,08,17,05,29,16.10
2017,08,17,05,30,16.10
2017,08,17,05,31,16.10
2017,08,17,05,32,16.10
2017,08,17,05,33,16.10
2017,08,17,05,34,16.10
2017,08,17,05,35,16.10
2017,08,17,05,36,16.10
2017,08,17,05,37,16.10
2017,08,17,05,38,16.10
2017,08,17,05,39,16.00
2017,08,17,05,40,16.00
2017,08,17,05,41,16.00
2017,08,17,05,42,16.00
2017,08,17,05,43,15.90
2017,08,17,05,44,15.90
2017,08,17,05,45,15.90
2017,08,17,05,46,15.90
2017,08,17,05,47,15.90
2017,08,17,05,48,15.90
2017,08,17,05,49,15.90
2017,08,17,05,50,15.90
2017,08,17,05,51,15.90
2017,08,17,05,52,15.90
2017,08,17,05,53,15.90
2017,08,17,05,54,15.90
2017,08,17,05,55,15.90
2017,08,17,05,56,15.90
2017,08,17,05,57,15.90
2017,08,17,05,58,15.90
2017,08,17,05,59,15.90
2017,08,17,06,00,15.90
2017,08,17,06,01,15.80
2017,08,17,06,02,15.80
2017,08,17,06,03,15.80
2017,08,17,06,04,15.80
2017,08,17,06,05,15.80
2017,08,17,06,06,15.80
2017,08,17,06,07,15.80
2017,08,17,06,08,15.80
2017,08,17,06,09,15.70
2017,08,17,06,10,15.70
2017,08,17,06,11,15.70
2017,08,17,06,12,15.70
2017,08,17,06,13,15.70
2017,08,17,06,14,15.70
2017,08,17,06,15,15.70
2017,08,17,06,16,15.70
2017,08,17,06,17,15.60
2017,08,17,06,18,15.60
2017,08,17,06,19,15.60
2017,08,17,06,20,15.60
2017,08,17,06,21,15.60
2017,08,17,06,22,15.60
2017,08,17,06,23,15.60
2017,08,17,06,24,15.60
2017,08,17,06,25,15.60
2017,08,17,06,26,15.60
2017,08,17,06,27,15.60
2017,08,17,06,28,15.60
2017,08,17,06,29,15.60
2017,08,17,06,30,15.60
2017,08,17,06,31,15.60
2017,08,17,06,32,15.60
2017,08,17,06,33,15.60
2017,08,17,06,34,15.60
2017,08,17,06,35,15.60
2017,08,17,06,36,15.60
2017,08,17,06,37,15.60
2017,08,17,06,38,15.60
2017,08,17,06,39,15.60
2017,08,17,06,40,15.60
2017,08,17,06,41,15.60
2017,08,17,06,42,15.60
2017,08,17,06,43,15.60
2017,08,17,06,44,15.60
2017,08,17,06,45,15.60
2017,08,17,06,46,15.60
2017,08,17,06,47,15.60
2017,08,17,06,48,15.60
2017,08,17,06,49,15.60
2017,08,17,06,50,15.60
2017,08,17,06,51,15.70
2017,08,17,06,52,15.70
2017,08,17,06,53,15.70
2017,08,17,06,54,15.70
2017,08,17,06,55,15.70
2017,08,17,06,56,15.70
2017,08,17,06,57,15.80
2017,08,17,06,58,15.80
2017,08,17,06,59,15.80
2017,08,17,07,00,15.80
2017,08,17,07,01,15.80
2017,08,17,07,02,15.90
2017,08,17,07,03,15.90
2017,08,17,07,04,15.90
2017,08,17,07,05,15.90
2017,08,17,07,06,16.00
2017,08,17,07,07,16.00
2017,08,17,07,08,16.00
2017,08,17,07,09,16.10
2017,08,17,07,10,16.10
2017,08,17,07,11,16.10
2017,08,17,07,12,16.10
2017,08,17,07,13,16.20
2017,08,17,07,14,16.20
2017,08,17,07,15,16.20
2017,08,17,07,16,16.20
2017,08,17,07,17,16.20
2017,08,17,07,18,16.20
2017,08,17,07,19,16.30
2017,08,17,07,20,16.30
2017,08,17,07,21,16.30
2017,08,17,07,22,16.30
2017,08,17,07,23,16.30
2017,08,17,07,24,16.30
2017,08,17,07,25,16.30
2017,08,17,07,26,16.30
2017,08,17,07,27,16.30
2017,08,17,07,28,16.30
2017,08,17,07,29,16.30
2017,08,17,07,30,16.40
2017,08,17,07,31,16.40
2017,08,17,07,32,16.40
2017,08,17,07,33,16.40
2017,08,17,07,34,16.40
2017,08,17,07,35,16.40
2017,08,17,07,36,16.50
2017,08,17,07,37,16.50
2017,08,17,07,38,16.50
2017,08,17,07,39,16.50
2017,08,17,07,40,16.50
2017,08,17,07,41,16.60
2017,08,17,07,42,16.60
2017,08,17,07,43,16.60
2017,08,17,07,44,16.60
2017,08,17,07,45,16.60
2017,08,17,07,46,16.60
2017,08,17,07,47,16.60
2017,08,17,07,48,16.60
2017,08,17,07,49,16.60
2017,08,17,07,50,16.60
2017,08,17,07,51,16.70
2017,08,17,07,52,16.70
2017,08,17,07,53,16.70
2017,08,17,07,54,16.70
2017,08,17,07,55,16.70
2017,08,17,07,56,16.70
2017,08,17,07,57,16.80
2017,08,17,07,58,16.80
2017,08,17,07,59,16.80
2017,08,17,08,00,16.80
2017,08,17,08,01,16.80
2017,08,17,08,02,16.80
2017,08,17,08,03,16.80
2017,08,17,08,04,16.80
2017,08,17,08,05,16.80
2017,08,17,08,06,16.80
2017,08,17,08,07,16.80
2017,08,17,08,08,16.80
2017,08,17,08,09,16.90
2017,08,17,08,10,16.90
2017,08,17,08,11,16.90
2017,08,17,08,12,16.90
2017,08,17,08,13,17.00
2017,08,17,08,14,17.00
2017,08,17,08,15,17.00
2017,08,17,08,16,17.10
2017,08,17,08,17,17.10
2017,08,17,08,18,17.10
2017,08,17,08,19,17.10
2017,08,17,08,20,17.10
2017,08,17,08,21,17.10
2017,08,17,08,22,17.10
2017,08,17,08,23,17.10
2017,08,17,08,24,17.10
2017,08,17,08,25,17.10
2017,08,17,08,26,17.10
2017,08,17,08,27,17.20
2017,08,17,08,28,17.20
2017,08,17,08,29,17.20
2017,08,17,08,30,17.30
2017,08,17,08,31,17.30
2017,08,17,08,32,17.30
2017,08,17,08,33,17.40
2017,08,17,08,34,17.40
2017,08,17,08,35,17.40
2017,08,17,08,36,17.50
2017,08,17,08,37,17.50
2017,08,17,08,38,17.60
2017,08,17,08,39,17.60
2017,08,17,08,40,17.60
2017,08,17,08,41,17.60
2017,08,17,08,42,17.70
2017,08,17,08,43,17.70
2017,08,17,08,44,17.70
2017,08,17,08,45,17.70
2017,08,17,08,46,17.80
2017,08,17,08,47,17.90
2017,08,17,08,48,18.00
2017,08,17,08,49,18.10
2017,08,17,08,50,18.10
2017,08,17,08,51,18.10
2017,08,17,08,52,18.10
2017,08,17,08,53,18.00
2017,08,17,08,54,18.10
2017,08,17,08,55,18.10
2017,08,17,08,56,18.20
2017,08,17,08,57,18.30
2017,08,17,08,58,18.30
2017,08,17,08,59,18.30
2017,08,17,09,00,18.30
2017,08,17,09,01,18.40
2017,08,17,09,02,18.40
2017,08,17,09,03,18.40
2017,08,17,09,04,18.30
2017,08,17,09,05,18.30
2017,08,17,09,06,18.30
2017,08,17,09,07,18.30
2017,08,17,09,08,18.20
2017,08,17,09,09,18.20
2017,08,17,09,10,18.20
2017,08,17,09,11,18.30
2017,08,17,09,12,18.50
2017,08,17,09,13,18.60
2017,08,17,09,14,18.70
2017,08,17,09,15,18.80
2017,08,17,09,16,18.80
2017,08,17,09,17,18.90
2017,08,17,09,18,18.90
2017,08,17,09,19,18.80
2017,08,17,09,20,18.80
2017,08,17,09,21,18.80
2017,08,17,09,22,18.60
2017,08,17,09,23,18.50
2017,08,17,09,24,18.40
2017,08,17,09,25,18.30
2017,08,17,09,26,18.20
2017,08,17,09,27,18.10
2017,08,17,09,28,18.10
2017,08,17,09,29,18.20
2017,08,17,09,30,18.20
2017,08,17,09,31,18.30
2017,08,17,09,32,18.30
2017,08,17,09,33,18.30
2017,08,17,09,34,18.30
2017,08,17,09,35,18.30
2017,08,17,09,36,18.40
2017,08,17,09,37,18.30
2017,08,17,09,38,18.30
2017,08,17,09,39,18.30
2017,08,17,09,40,18.20
2017,08,17,09,41,18.20
2017,08,17,09,42,18.30
2017,08,17,09,43,18.30
2017,08,17,09,44,18.40
2017,08,17,09,45,18.40
2017,08,17,09,46,18.40
2017,08,17,09,47,18.30
2017,08,17,09,48,18.30
2017,08,17,09,49,18.30
2017,08,17,09,50,18.20
2017,08,17,09,51,18.20
2017,08,17,09,52,18.30
2017,08,17,09,53,18.20
2017,08,17,09,54,18.00
2017,08,17,09,55,17.80
2017,08,17,09,56,17.80
2017,08,17,09,57,17.80
2017,08,17,09,58,17.90
2017,08,17,09,59,17.90
2017,08,17,10,00,17.90
2017,08,17,10,01,18.10
2017,08,17,10,02,18.20
2017,08,17,10,03,18.20
2017,08,17,10,04,18.20
2017,08,17,10,05,18.10
2017,08,17,10,06,18.10
2017,08,17,10,07,18.00
2017,08,17,10,08,17.90
2017,08,17,10,09,17.80
2017,08,17,10,10,17.80
2017,08,17,10,11,17.90
2017,08,17,10,12,17.80
2017,08,17,10,13,17.80
2017,08,17,10,14,17.90
2017,08,17,10,15,18.10
2017,08,17,10,16,18.10
2017,08,17,10,17,18.10
2017,08,17,10,18,18.10
2017,08,17,10,19,18.10
2017,08,17,10,20,18.10
2017,08,17,10,21,18.20
2017,08,17,10,22,18.10
2017,08,17,10,23,18.10
2017,08,17,10,24,18.00
2017,08,17,10,25,18.00
2017,08,17,10,26,18.00
2017,08,17,10,27,18.10
2017,08,17,10,28,18.10
2017,08,17,10,29,18.20
2017,08,17,10,30,18.30
2017,08,17,10,31,18.30
2017,08,17,10,32,18.30
2017,08,17,10,33,18.40
2017,08,17,10,34,18.50
2017,08,17,10,35,18.60
2017,08,17,10,36,18.70
2017,08,17,10,37,18.80
2017,08,17,10,38,18.70
2017,08,17,10,39,18.70
2017,08,17,10,40,18.80
2017,08,17,10,41,18.70
2017,08,17,10,42,18.60
2017,08,17,10,43,18.60
2017,08,17,10,44,18.50
2017,08,17,10,45,18.60
2017,08,17,10,46,18.80
2017,08,17,10,47,19.00
2017,08,17,10,48,19.20
2017,08,17,10,49,19.30
2017,08,17,10,50,19.20
2017,08,17,10,51,19.00
2017,08,17,10,52,18.80
2017,08,17,10,53,18.70
2017,08,17,10,54,18.60
2017,08,17,10,55,18.60
2017,08,17,10,56,18.60
2017,08,17,10,57,18.70
2017,08,17,10,58,18.70
2017,08,17,10,59,18.70
2017,08,17,11,00,18.80
2017,08,17,11,01,18.90
2017,08,17,11,02,18.90
2017,08,17,11,03,18.80
2017,08,17,11,04,18.70
2017,08,17,11,05,18.50
2017,08,17,11,06,18.30
2017,08,17,11,07,18.30
2017,08,17,11,08,18.30
2017,08,17,11,09,18.30
2017,08,17,11,10,18.40
2017,08,17,11,11,18.40
2017,08,17,11,12,18.40
2017,08,17,11,13,18.50
2017,08,17,11,14,18.60
2017,08,17,11,15,18.60
2017,08,17,11,16,18.50
2017,08,17,11,17,18.40
2017,08,17,11,18,18.50
2017,08,17,11,19,18.50
2017,08,17,11,20,18.50
2017,08,17,11,21,18.50
2017,08,17,11,22,18.50
2017,08,17,11,23,18.60
2017,08,17,11,24,18.80
2017,08,17,11,25,18.90
2017,08,17,11,26,19.00
2017,08,17,11,27,19.20
2017,08,17,11,28,19.30
2017,08,17,11,29,19.30
2017,08,17,11,30,19.30
2017,08,17,11,31,19.10
2017,08,17,11,32,19.00
2017,08,17,11,33,18.80
2017,08,17,11,34,18.80
2017,08,17,11,35,18.90
2017,08,17,11,36,19.10
2017,08,17,11,37,19.30
2017,08,17,11,38,19.50
2017,08,17,11,39,19.60
2017,08,17,11,40,19.60
2017,08,17,11,41,19.60
2017,08,17,11,42,19.70
2017,08,17,11,43,19.70
2017,08,17,11,44,19.70
2017,08,17,11,45,19.70
2017,08,17,11,46,19.70
2017,08,17,11,47,19.60
2017,08,17,11,48,19.70
2017,08,17,11,49,19.70
2017,08,17,11,50,19.50
2017,08,17,11,51,19.40
2017,08,17,11,52,19.30
2017,08,17,11,53,19.20
2017,08,17,11,54,19.30
2017,08,17,11,55,19.30
2017,08,17,11,56,19.30
2017,08,17,11,57,19.20
2017,08,17,11,58,19.20
2017,08,17,11,59,19.30
2017,08,17,12,00,19.40
2017,08,17,12,01,19.40
2017,08,17,12,02,19.20
2017,08,17,12,03,19.10
2017,08,17,12,04,19.00
2017,08,17,12,05,19.00
2017,08,17,12,06,18.90
2017,08,17,12,07,18.90
2017,08,17,12,08,19.00
2017,08,17,12,09,19.20
2017,08,17,12,10,19.30
2017,08,17,12,11,19.30
2017,08,17,12,12,19.30
2017,08,17,12,13,19.30
2017,08,17,12,14,19.10
2017,08,17,12,15,19.00
2017,08,17,12,16,19.00
2017,08,17,12,17,19.10
2017,08,17,12,18,19.30
2017,08,17,12,19,19.40
2017,08,17,12,20,19.50
2017,08,17,12,21,19.60
2017,08,17,12,22,19.60
2017,08,17,12,23,19.70
2017,08,17,12,24,19.80
2017,08,17,12,25,19.80
2017,08,17,12,26,19.80
2017,08,17,12,27,19.60
2017,08,17,12,28,19.40
2017,08,17,12,29,19.50
2017,08,17,12,30,19.50
2017,08,17,12,31,19.60
2017,08,17,12,32,19.50
2017,08,17,12,33,19.50
2017,08,17,12,34,19.60
2017,08,17,12,35,19.70
2017,08,17,12,36,19.80
2017,08,17,12,37,19.80
2017,08,17,12,38,19.80
2017,08,17,12,39,19.50
2017,08,17,12,40,19.30
2017,08,17,12,41,19.20
2017,08,17,12,42,19.10
2017,08,17,12,43,19.00
2017,08,17,12,44,19.10
2017,08,17,12,45,19.10
2017,08,17,12,46,19.10
2017,08,17,12,47,19.20
2017,08,17,12,48,19.30
2017,08,17,12,49,19.60
2017,08,17,12,50,19.70
2017,08,17,12,51,19.70
2017,08,17,12,52,19.70
2017,08,17,12,53,19.70
2017,08,17,12,54,19.80
2017,08,17,12,55,19.80
2017,08,17,12,56,19.90
2017,08,17,12,57,19.90
2017,08,17,12,58,19.70
2017,08,17,12,59,19.50
2017,08,17,13,00,19.50
2017,08,17,13,01,19.60
2017,08,17,13,02,19.70
2017,08,17,13,03,19.70
2017,08,17,13,04,19.80
2017,08,17,13,05,19.70
2017,08,17,13,06,19.50
2017,08,17,13,07,19.50
2017,08,17,13,08,19.50
2017,08,17,13,09,19.60
2017,08,17,13,10,19.60
2017,08,17,13,11,19.70
2017,08,17,13,12,19.80
2017,08,17,13,13,19.80
2017,08,17,13,14,19.80
2017,08,17,13,15,19.80
2017,08,17,13,16,19.80
2017,08,17,13,17,19.60
2017,08,17,13,18,19.50
2017,08,17,13,19,19.40
2017,08,17,13,20,19.40
2017,08,17,13,21,19.40
2017,08,17,13,22,19.40
2017,08,17,13,23,19.40
2017,08,17,13,24,19.40
2017,08,17,13,25,19.50
2017,08,17,13,26,19.60
2017,08,17,13,27,19.60
2017,08,17,13,28,19.60
2017,08,17,13,29,19.70
2017,08,17,13,30,19.90
2017,08,17,13,31,19.90
2017,08,17,13,32,19.90
2017,08,17,13,33,19.80
2017,08,17,13,34,19.60
2017,08,17,13,35,19.60
2017,08,17,13,36,19.50
2017,08,17,13,37,19.40
2017,08,17,13,38,19.40
2017,08,17,13,39,19.60
2017,08,17,13,40,19.70
2017,08,17,13,41,19.70
2017,08,17,13,42,19.60
2017,08,17,13,43,19.60
2017,08,17,13,44,19.50
2017,08,17,13,45,19.30
2017,08,17,13,46,19.10
2017,08,17,13,47,19.10
2017,08,17,13,48,19.10
2017,08,17,13,49,19.20
2017,08,17,13,50,19.30
2017,08,17,13,51,19.50
2017,08,17,13,52,19.60
2017,08,17,13,53,19.50
2017,08,17,13,54,19.40
2017,08,17,13,55,19.40
2017,08,17,13,56,19.40
2017,08,17,13,57,19.40
2017,08,17,13,58,19.30
2017,08,17,13,59,19.30
2017,08,17,14,00,19.40
2017,08,17,14,01,19.40
2017,08,17,14,02,19.30
2017,08,17,14,03,19.20
2017,08,17,14,04,19.20
2017,08,17,14,05,19.30
2017,08,17,14,06,19.40
2017,08,17,14,07,19.50
2017,08,17,14,08,19.40
2017,08,17,14,09,19.20
2017,08,17,14,10,19.10
2017,08,17,14,11,18.90
2017,08,17,14,12,18.90
2017,08,17,14,13,19.00
2017,08,17,14,14,19.10
2017,08,17,14,15,19.20
2017,08,17,14,16,19.20
2017,08,17,14,17,19.20
2017,08,17,14,18,19.10
2017,08,17,14,19,19.00
2017,08,17,14,20,18.90
2017,08,17,14,21,18.80
2017,08,17,14,22,18.90
2017,08,17,14,23,19.00
2017,08,17,14,24,19.10
2017,08,17,14,25,19.20
2017,08,17,14,26,19.30
2017,08,17,14,27,19.40
2017,08,17,14,28,19.30
2017,08,17,14,29,19.40
2017,08,17,14,30,19.50
2017,08,17,14,31,19.60
2017,08,17,14,32,19.70
2017,08,17,14,33,19.70
2017,08,17,14,34,19.60
2017,08,17,14,35,19.50
2017,08,17,14,36,19.30
2017,08,17,14,37,19.30
2017,08,17,14,38,19.20
2017,08,17,14,39,19.20
2017,08,17,14,40,19.30
2017,08,17,14,41,19.40
2017,08,17,14,42,19.50
2017,08,17,14,43,19.60
2017,08,17,14,44,19.60
2017,08,17,14,45,19.70
2017,08,17,14,46,19.80
2017,08,17,14,47,19.80
2017,08,17,14,48,19.80
2017,08,17,14,49,19.80
2017,08,17,14,50,19.80
2017,08,17,14,51,19.70
2017,08,17,14,52,19.50
2017,08,17,14,53,19.40
2017,08,17,14,54,19.40
2017,08,17,14,55,19.40
2017,08,17,14,56,19.40
2017,08,17,14,57,19.50
2017,08,17,14,58,19.50
2017,08,17,14,59,19.60
2017,08,17,15,00,19.80
2017,08,17,15,01,19.90
2017,08,17,15,02,20.00
2017,08,17,15,03,20.10
2017,08,17,15,04,20.00
2017,08,17,15,05,19.90
2017,08,17,15,06,19.80
2017,08,17,15,07,19.80
2017,08,17,15,08,19.80
2017,08,17,15,09,19.80
2017,08,17,15,10,19.80
2017,08,17,15,11,19.80
2017,08,17,15,12,19.80
2017,08,17,15,13,19.70
2017,08,17,15,14,19.60
2017,08,17,15,15,19.50
2017,08,17,15,16,19.40
2017,08,17,15,17,19.30
2017,08,17,15,18,19.20
2017,08,17,15,19,19.20
2017,08,17,15,20,19.10
2017,08,17,15,21,19.10
2017,08,17,15,22,19.20
2017,08,17,15,23,19.20
2017,08,17,15,24,19.30
2017,08,17,15,25,19.40
2017,08,17,15,26,19.50
2017,08,17,15,27,19.60
2017,08,17,15,28,19.60
2017,08,17,15,29,19.60
2017,08,17,15,30,19.60
2017,08,17,15,31,19.50
2017,08,17,15,32,19.50
2017,08,17,15,33,19.50
2017,08,17,15,34,19.60
2017,08,17,15,35,19.60
2017,08,17,15,36,19.70
2017,08,17,15,37,19.80
2017,08,17,15,38,19.90
2017,08,17,15,39,20.00
2017,08,17,15,40,20.10
2017,08,17,15,41,20.20
2017,08,17,15,42,20.30
2017,08,17,15,43,20.40
2017,08,17,15,44,20.40
2017,08,17,15,45,20.40
2017,08,17,15,46,20.40
2017,08,17,15,47,20.20
2017,08,17,15,48,20.10
2017,08,17,15,49,20.00
2017,08,17,15,50,20.00
2017,08,17,15,51,20.00
2017,08,17,15,52,20.10
2017,08,17,15,53,20.20
2017,08,17,15,54,20.20
2017,08,17,15,55,20.30
2017,08,17,15,56,20.30
2017,08,17,15,57,20.40
2017,08,17,15,58,20.50
2017,08,17,15,59,20.60
2017,08,17,16,00,20.70
2017,08,17,16,01,20.60
2017,08,17,16,02,20.40
2017,08,17,16,03,20.30
2017,08,17,16,04,20.20
2017,08,17,16,05,20.10
2017,08,17,16,06,20.10
2017,08,17,16,07,20.10
2017,08,17,16,08,20.20
2017,08,17,16,09,20.30
2017,08,17,16,10,20.30
2017,08,17,16,11,20.40
2017,08,17,16,12,20.30
2017,08,17,16,13,20.30
2017,08,17,16,14,20.30
2017,08,17,16,15,20.30
2017,08,17,16,16,20.30
2017,08,17,16,17,20.30
2017,08,17,16,18,20.30
2017,08,17,16,19,20.30
2017,08,17,16,20,20.30
2017,08,17,16,21,20.30
2017,08,17,16,22,20.30
2017,08,17,16,23,20.40
2017,08,17,16,24,20.30
2017,08,17,16,25,20.30
2017,08,17,16,26,20.30
2017,08,17,16,27,20.40
2017,08,17,16,28,20.50
2017,08,17,16,29,20.50
2017,08,17,16,30,20.50
2017,08,17,16,31,20.50
2017,08,17,16,32,20.50
2017,08,17,16,33,20.50
2017,08,17,16,34,20.60
2017,08,17,16,35,20.70
2017,08,17,16,36,20.70
2017,08,17,16,37,20.60
2017,08,17,16,38,20.50
2017,08,17,16,39,20.40
2017,08,17,16,40,20.40
2017,08,17,16,41,20.30
2017,08,17,16,42,20.30
2017,08,17,16,43,20.20
2017,08,17,16,44,20.00
2017,08,17,16,45,19.90
2017,08,17,16,46,19.90
2017,08,17,16,47,19.90
2017,08,17,16,48,20.00
2017,08,17,16,49,20.10
2017,08,17,16,50,20.20
2017,08,17,16,51,20.20
2017,08,17,16,52,20.30
2017,08,17,16,53,20.30
2017,08,17,16,54,20.20
2017,08,17,16,55,20.20
2017,08,17,16,56,20.20
2017,08,17,16,57,20.20
2017,08,17,16,58,20.20
2017,08,17,16,59,20.30
2017,08,17,17,00,20.20
2017,08,17,17,01,20.10
2017,08,17,17,02,20.00
2017,08,17,17,03,20.00
2017,08,17,17,04,20.00
2017,08,17,17,05,20.10
2017,08,17,17,06,20.10
2017,08,17,17,07,20.10
2017,08,17,17,08,20.10
2017,08,17,17,09,20.10
2017,08,17,17,10,20.20
2017,08,17,17,11,20.20
2017,08,17,17,12,20.30
2017,08,17,17,13,20.40
2017,08,17,17,14,20.40
2017,08,17,17,15,20.40
2017,08,17,17,16,20.50
2017,08,17,17,17,20.50
2017,08,17,17,18,20.50
2017,08,17,17,19,20.50